Weather History for KHDE - January, 2013

Change the Weather History Date:

Wednesday, January 2, 2013

  Actual Average Record
Temperature  
Mean Temperature 23 °F -  
Max Temperature 35 °F 33 °F 73 °F (1997)
Min Temperature 11 °F 12 °F -5 °F (1968)
Degree Days  
Heating Degree Days 42    
Moisture  
Dew Point 20 °F    
Average Humidity 79    
Maximum Humidity 88    
Minimum Humidity 69    
Precipitation  
Precipitation 0.00 in - - ()
Sea Level Pressure  
Sea Level Pressure 30.11 in    
Wind  
Wind Speed 10 mph (WNW)    
Max Wind Speed 15 mph    
Max Gust Speed 18 mph    
Visibility 10 miles    
Events Snow    
Averages and records for this station are not official NWS values.
T = Trace of Precipitation, MM = Missing Value Source: NWS Daily Summary

Daily Weather History Graph

Daily Weather History Graph

Search for Another Location

Airport or City:

Trip Planner

Search our weather history database for the weather conditions in past years. The results will help you decide how hot, cold, wet, or windy it might be!

Date:

Astronomy

Jan. 02, 2013 Rise Set
Actual Time 8:00 AM CST 5:22 PM CST
Civil Twilight 7:30 AM CST 5:53 PM CST
Nautical Twilight 6:55 AM CST 6:27 PM CST
Astronomical Twilight 6:22 AM CST 7:00 PM CST
Moon 10:58 PM CST (1/2) 10:42 AM CST (1/2)
Length of Visible Light 10h 23m
Length of Day
9h 21m
Waning Gibbous, 75% of the Moon is Illuminated
Jan 2
Waning Gibbous
Jan 4
Last Quarter
Jan 11
New
Jan 18
First Quarter
Jan 26
Full

Hourly Weather History & Observations

Time (CST) Temp. Windchill Dew Point Humidity Pressure Visibility Wind Dir Wind Speed Gust Speed Precip Events Conditions
12:15 AM 18.7 °F 6.3 °F 11.5 °F 74% 30.08 in 10.0 mi West 11.5 mph - N/A   Clear
12:35 AM 17.6 °F 5.0 °F 10.8 °F 75% 30.07 in 10.0 mi West 11.5 mph - N/A   Clear
12:55 AM 16.9 °F 4.1 °F 10.4 °F 76% 30.06 in 10.0 mi West 11.5 mph - N/A   Clear
1:15 AM 17.1 °F 2.5 °F 10.4 °F 75% 30.05 in 10.0 mi West 15.0 mph - N/A   Clear
1:35 AM 16.7 °F 3.2 °F 10.2 °F 76% 30.05 in 10.0 mi West 12.7 mph - N/A   Clear
1:55 AM 15.4 °F 1.0 °F 9.3 °F 77% 30.05 in 10.0 mi West 13.8 mph - N/A   Clear
2:15 AM 14.5 °F 1.9 °F 8.8 °F 78% 30.05 in 10.0 mi West 10.4 mph - N/A   Scattered Clouds
2:35 AM 14.7 °F 2.1 °F 8.6 °F 77% 30.04 in 10.0 mi West 10.4 mph - N/A   Clear
2:55 AM 15.1 °F 2.5 °F 9.1 °F 77% 30.05 in 10.0 mi West 10.4 mph - N/A   Clear
3:15 AM 13.3 °F 0.3 °F 7.5 °F 78% 30.05 in 10.0 mi West 10.4 mph - N/A   Clear
3:35 AM 13.1 °F 1.8 °F 7.7 °F 79% 30.05 in 10.0 mi West 8.1 mph - N/A   Clear
3:55 AM 12.7 °F 1.4 °F 7.2 °F 78% 30.05 in 10.0 mi West 8.1 mph - N/A   Clear
4:15 AM 12.7 °F 0.4 °F 7.3 °F 79% 30.04 in 10.0 mi West 9.2 mph - N/A   Clear
4:35 AM 12.2 °F -0.2 °F 6.8 °F 79% 30.04 in 10.0 mi West 9.2 mph - N/A   Clear
4:55 AM 11.5 °F -1.1 °F 6.3 °F 80% 30.05 in 10.0 mi West 9.2 mph - N/A   Clear
5:15 AM 11.5 °F -1.1 °F 6.6 °F 81% 30.05 in 10.0 mi WNW 9.2 mph - N/A   Clear
5:35 AM 13.5 °F 1.3 °F 8.4 °F 80% 30.04 in 10.0 mi WNW 9.2 mph - N/A   Clear
5:55 AM 14.0 °F 2.9 °F 9.5 °F 82% 30.04 in 10.0 mi NW 8.1 mph - N/A   Scattered Clouds
6:15 AM 16.3 °F 4.1 °F 12.2 °F 84% 30.04 in 10.0 mi WNW 10.4 mph - N/A   Mostly Cloudy
6:35 AM 19.2 °F 8.4 °F 14.5 °F 82% 30.05 in 10.0 mi NW 9.2 mph - N/A   Overcast
6:55 AM 22.8 °F 10.4 °F 18.1 °F 82% 30.05 in 10.0 mi NW 13.8 mph - N/A   Overcast
7:15 AM 24.4 °F 13.5 °F 19.9 °F 83% 30.06 in 10.0 mi NW 11.5 mph - N/A   Overcast
7:35 AM 25.3 °F 13.1 °F 21.0 °F 84% 30.06 in 10.0 mi NW 15.0 mph - N/A   Overcast
7:55 AM 25.5 °F 15.5 °F 21.9 °F 86% 30.07 in 7.0 mi NW 10.4 mph - N/A Snow Light Snow
8:15 AM 26.1 °F 16.2 °F 23.0 °F 88% 30.07 in 10.0 mi NW 10.4 mph - N/A   Overcast
8:35 AM 26.4 °F 16.6 °F 23.2 °F 88% 30.08 in 10.0 mi WNW 10.4 mph - N/A   Overcast
8:55 AM 26.6 °F 18.2 °F 23.4 °F 88% 30.08 in 10.0 mi NW 8.1 mph - N/A   Overcast
9:15 AM 27.5 °F 16.8 °F 24.4 °F 88% 30.09 in 10.0 mi NW 12.7 mph - N/A   Overcast
9:35 AM 28.4 °F 18.5 °F 25.3 °F 88% 30.10 in 10.0 mi NW 11.5 mph - N/A   Overcast
9:55 AM 29.3 °F 20.2 °F 26.1 °F 88% 30.11 in 10.0 mi NW 10.4 mph - N/A   Overcast
10:15 AM 30.0 °F 21.7 °F 26.6 °F 87% 30.12 in 10.0 mi NW 9.2 mph - N/A   Mostly Cloudy
10:35 AM 30.7 °F 22.6 °F 27.3 °F 87% 30.13 in 10.0 mi WNW 9.2 mph - N/A   Mostly Cloudy
10:55 AM 31.1 °F 21.9 °F 27.5 °F 87% 30.12 in 10.0 mi NW 11.5 mph - N/A   Overcast
11:15 AM 32.0 °F 24.2 °F 27.5 °F 83% 30.12 in 10.0 mi WNW 9.2 mph - N/A   Mostly Cloudy
11:35 AM 33.1 °F 25.5 °F 27.9 °F 81% 30.11 in 10.0 mi WNW 9.2 mph - N/A   Scattered Clouds
11:55 AM 33.1 °F 25.5 °F 28.0 °F 82% 30.10 in 10.0 mi West 9.2 mph - N/A   Scattered Clouds
12:15 PM 33.3 °F 25.7 °F 28.0 °F 81% 30.10 in 10.0 mi West 9.2 mph - N/A   Clear
12:35 PM 34.0 °F 26.0 °F 28.2 °F 79% 30.09 in 10.0 mi West 10.4 mph - N/A   Clear
12:55 PM 34.2 °F 26.8 °F 28.2 °F 79% 30.09 in 10.0 mi West 9.2 mph - N/A   Clear
1:15 PM 34.2 °F 26.8 °F 28.4 °F 79% 30.09 in 10.0 mi West 9.2 mph - N/A   Scattered Clouds
1:35 PM 34.9 °F 27.1 °F 28.0 °F 76% 30.09 in 10.0 mi NW 10.4 mph - N/A   Overcast
1:55 PM 34.9 °F 26.6 °F 27.3 °F 74% 30.08 in 10.0 mi WNW 11.5 mph - N/A   Overcast
2:15 PM 35.1 °F 27.4 °F 28.0 °F 76% 30.08 in 10.0 mi NW 10.4 mph - N/A   Overcast
2:35 PM 35.1 °F 27.9 °F 27.3 °F 73% 30.08 in 10.0 mi NW 9.2 mph - N/A   Overcast
2:55 PM 34.9 °F 28.3 °F 27.9 °F 76% 30.09 in 10.0 mi NW 8.1 mph - N/A   Overcast
3:15 PM 34.9 °F 27.1 °F 26.8 °F 72% 30.09 in 10.0 mi North 10.4 mph 18.4 mph N/A   Overcast
3:35 PM 34.2 °F 27.5 °F 27.1 °F 75% 30.11 in 10.0 mi NNW 8.1 mph - N/A   Overcast
3:55 PM 34.2 °F 26.8 °F 27.3 °F 76% 30.11 in 10.0 mi NNW 9.2 mph - N/A   Overcast
4:15 PM 33.8 °F 26.4 °F 26.1 °F 73% 30.12 in 10.0 mi NNW 9.2 mph - N/A   Overcast
4:35 PM 34.0 °F 26.0 °F 24.8 °F 69% 30.12 in 10.0 mi NNW 10.4 mph - N/A   Overcast
4:55 PM 33.4 °F 25.9 °F 25.5 °F 73% 30.13 in 10.0 mi NNW 9.2 mph - N/A   Overcast
5:15 PM 32.7 °F 27.3 °F 24.3 °F 71% 30.14 in 10.0 mi NNW 5.8 mph - N/A   Overcast
5:35 PM 32.0 °F 28.7 °F 24.6 °F 74% 30.15 in 10.0 mi NW 3.5 mph - N/A   Overcast
5:55 PM 32.0 °F - 24.8 °F 75% 30.15 in 10.0 mi Calm Calm - N/A   Overcast
6:15 PM 32.0 °F 27.5 °F 24.4 °F 74% 30.15 in 10.0 mi West 4.6 mph - N/A   Overcast
6:35 PM 31.1 °F 26.4 °F 23.9 °F 75% 30.16 in 10.0 mi WNW 4.6 mph - N/A   Overcast
6:55 PM 30.0 °F - 23.2 °F 76% 30.16 in 10.0 mi Calm Calm - N/A   Overcast
7:15 PM 28.9 °F 23.9 °F 22.6 °F 77% 30.17 in 10.0 mi West 4.6 mph - N/A   Overcast
7:35 PM 27.5 °F 22.2 °F 22.1 °F 80% 30.17 in 10.0 mi West 4.6 mph - N/A   Overcast
7:55 PM 28.6 °F 22.4 °F 22.8 °F 79% 30.17 in 10.0 mi West 5.8 mph - N/A   Overcast
8:15 PM 30.0 °F 23.2 °F 23.0 °F 75% 30.18 in 10.0 mi West 6.9 mph - N/A   Overcast
8:35 PM 30.2 °F 22.6 °F 22.6 °F 73% 30.19 in 10.0 mi WNW 8.1 mph - N/A   Mostly Cloudy
8:55 PM 28.8 °F 20.2 °F 21.9 °F 76% 30.19 in 10.0 mi WNW 9.2 mph - N/A   Scattered Clouds
9:15 PM 26.1 °F 17.6 °F 20.1 °F 78% 30.20 in 10.0 mi WNW 8.1 mph - N/A   Scattered Clouds
9:35 PM 25.3 °F 16.0 °F 20.5 °F 82% 30.21 in 10.0 mi NW 9.2 mph - N/A   Scattered Clouds
9:55 PM 24.8 °F 14.0 °F 19.6 °F 81% 30.22 in 10.0 mi NW 11.5 mph - N/A   Clear
10:15 PM 25.5 °F 15.5 °F 19.9 °F 79% 30.22 in 10.0 mi NW 10.4 mph - N/A   Clear
10:35 PM 24.4 °F 15.6 °F 19.2 °F 81% 30.23 in 10.0 mi NW 8.1 mph - N/A   Scattered Clouds
10:55 PM 23.0 °F 13.1 °F 17.6 °F 80% 30.24 in 10.0 mi NW 9.2 mph - N/A   Scattered Clouds
11:15 PM 22.8 °F 11.5 °F 17.2 °F 79% 30.25 in 10.0 mi NNW 11.5 mph - N/A   Clear
11:35 PM 23.0 °F 11.1 °F 17.2 °F 79% 30.26 in 10.0 mi NNW 12.7 mph - N/A   Scattered Clouds
11:55 PM 23.0 °F 13.1 °F 17.2 °F 79% 30.27 in 10.0 mi NW 9.2 mph - N/A   Mostly Cloudy